{"data":{"norad_id":46155,"epoch":"2026-07-03T21:32:08.887776Z","epoch_age_seconds":6809393,"freshness":"OLD","line1":"1 46155U 20057AQ  26184.89732509  .06909011  12312-4  69923-3 0  9990","line2":"2 46155  52.9948 359.8183 0012793 282.1188  77.8423 16.36899098326987","mean_motion":16.36899098,"eccentricity":0.0012793,"inclination_deg":52.9948,"raan_deg":359.8183,"arg_perigee_deg":282.1188,"mean_anomaly_deg":77.8423,"bstar":0.00069923,"rev_number":32698,"period_min":87.971213482824,"perigee_km":165.68212155836,"apogee_km":182.44658393951,"semimajor_km":6552.2013527489,"source":"CELESTRAK","updated_at":"2026-07-04T09:00:26.403363Z"}}